Location: Hermaringen
(48.5952°N, 10.2585°E)
Time: 01:52:29
(UTC+00:00)

Cosmos 540 Rocket - Pass Details

Date: 18 November 2025
Orbit: 735 x 748 km, 74.1° (Epoch: 04 December)

Event Time Altitude Azimuth Distance (km) Brightness Sun altitude
Rises 16:37:22 0° 337° (NNW) 3,201 6.8 -10.1°
Reaches altitude 10° 16:39:45 10° 339° (NNW) 2,272 6.0 -10.5°
Maximum altitude 16:44:54 77° 66° (ENE) 768 3.4 -11.3°
Drops below altitude 10° 16:50:00 10° 153° (SSE) 2,247 5.8 -12.1°
Sets 16:52:21 0° 155° (SSE) 3,164 6.6 -12.5°
